Simultaneous Nadir Overpasses (SNOs) Predictions

Prediction of SNOs near equator between AQUA and NPP Satellite Orbit:

Table of predicted SNOs near equator for the next 14.0 days since TLE Epoch: 9/29/2012
Index Date (AQUA) Time (AQUA) AQUA Lat,Lon Date (NPP) Time (NPP) NPP Lat,Lon Distance(km) Time Diff (sec)
1 10/01/2012 09:31:00 4.52, 60.40 10/01/2012 09:21:28 4.39, 59.72 76.76 572
2 10/04/2012 01:47:22 3.64, 176.43 10/04/2012 01:38:05 3.46, 175.71 83.14 557
3 10/06/2012 17:21:46 -29.94, 118.62 10/06/2012 17:11:46 -30.27, 117.70 94.92 600
4 10/06/2012 18:03:46 2.77, -67.54 10/06/2012 17:54:43 2.59, -68.32 88.67 543
5 10/09/2012 09:33:38 -12.61,-121.45 10/09/2012 09:23:38 -12.68,-122.12 73.14 600
6 10/09/2012 10:20:14 2.04, 48.44 10/09/2012 10:11:23 1.85, 47.62 93.48 531
7 10/12/2012 01:48:29
